Flag for France Weather past 2 weeks in Strasbourg, France

46 °F


Feels Like: 40 °F
Forecast: 51 / 53 °F
Wind: 14 mph from South

Location: Strasbourg Airport

Current Time: Nov 29, 2015 at 1:25:00 PM

Latest Report: Nov 29, 2015 at 12:30 PM

Visibility: N/A

Pressure: 30.12 "Hg

Humidity: 82%

Dew point: 41 °F

Location of StrasbourgLocation

Historic Weather in Strasbourg — Graph


Strasbourg temperature yesterday

Maximum temperature yesterday: 46 °F (at 2:30 PM)
Minimum temperature yesterday: 32 °F (at 1:00 AM)
Average temperature yesterday: 38 °F

Past Weeks' High & Low Weather Summary

High64 °F (Nov 15, 3:00 PM)100% (Nov 23, 8:30 AM)30.45 "Hg (Nov 23, 8:30 AM)
Low25 °F (Nov 24, 7:30 AM)39% (Nov 16, 11:30 AM)29.45 "Hg (Nov 21, 11:00 AM)
Average45 °F78%30.01 "Hg
* Reported Nov 14 12:00 Noon — Nov 29 12:00 Noon, Strasbourg, Weather by CustomWeather, © 2015

Note: Actual official high and low records may vary slightly from our data, if they occured in-between our weather recording intervals... More about our weather records


Strasbourg weather history for previous 24 hours

Time TempWeatherWind HumidityBarometerVisibility
12:00 PM
Sun, Nov 29
46 °FOvercast.14 mph82%30.12 "HgN/A
11:30 AM45 °FOvercast.13 mph81%30.12 "HgN/A
11:00 AM43 °FOvercast.12 mph87%30.12 "HgN/A
10:30 AM43 °FMostly cloudy.13 mph87%30.12 "HgN/A
10:00 AM43 °FMostly cloudy.15 mph81%30.12 "HgN/A
9:30 AM41 °FMostly cloudy.15 mph87%30.12 "HgN/A
9:00 AM41 °FLight rain. Partly sunny.15 mph87%30.12 "HgN/A
7:30 AM41 °FLight rain. Overcast.14 mph81%30.09 "HgN/A
6:00 AM41 °FLight rain. Overcast.14 mph81%30.09 "HgN/A
5:30 AM41 °FLight rain. Overcast.16 mph81%30.09 "HgN/A
5:00 AM41 °FLight rain. Overcast.17 mph76%30.09 "HgN/A
4:30 AM41 °FLight rain. Overcast.17 mph76%30.12 "HgN/A
4:00 AM41 °FLight rain. Overcast.15 mph76%30.12 "HgN/A
3:30 AM41 °FOvercast.15 mph76%30.12 "HgN/A
3:00 AM41 °FLight rain. Mostly cloudy.14 mph76%30.12 "HgN/A
2:30 AM41 °FMostly cloudy.14 mph76%30.15 "HgN/A
2:00 AM41 °FMostly cloudy.14 mph70%30.15 "HgN/A
1:30 AM41 °FPartly cloudy.12 mph70%30.15 "HgN/A
12:30 AM39 °FClear.10 mph75%30.15 "Hg10 mi
12:00 AM41 °FPassing clouds.12 mph70%30.18 "HgN/A
11:00 PM
Sat, Nov 28
39 °FPassing clouds.10 mph75%30.18 "HgN/A
10:30 PM39 °FOvercast.12 mph75%30.18 "HgN/A
10:00 PM37 °FOvercast.8 mph87%30.18 "HgN/A
9:30 PM37 °FClear.9 mph87%30.18 "Hg10 mi
9:00 PM37 °FClear.8 mph81%30.18 "Hg10 mi
8:30 PM37 °FPassing clouds.10 mph81%30.18 "HgN/A
8:00 PM37 °FPassing clouds.9 mph75%30.18 "HgN/A
7:30 PM37 °FClear.7 mph75%30.18 "Hg10 mi
7:00 PM39 °FClear.10 mph75%30.18 "Hg10 mi
6:30 PM36 °FClear.9 mph81%30.15 "Hg10 mi
6:00 PM36 °FPassing clouds.6 mph81%30.15 "HgN/A
5:30 PM36 °FPassing clouds.6 mph81%30.15 "HgN/A
5:00 PM37 °FClear.7 mph75%30.15 "Hg10 mi
4:30 PM39 °FPassing clouds.8 mph75%30.15 "HgN/A
4:00 PM45 °FPassing clouds.9 mph61%30.15 "HgN/A
3:30 PM45 °FPassing clouds.10 mph66%30.12 "HgN/A
3:00 PM45 °FPassing clouds.13 mph61%30.09 "HgN/A
2:30 PM46 °FPartly sunny.13 mph62%30.09 "HgN/A
2:00 PM45 °FMostly cloudy.9 mph71%30.09 "HgN/A
1:30 PM43 °FLight rain. Overcast.10 mph76%30.09 "HgN/A
1:00 PM43 °FOvercast.9 mph76%30.09 "HgN/A
Weather by CustomWeather, © 2015

See weather overviewHow to use our weather pages